Watersmeet, WI

10:56 AM CST on January 21, 2017 (GMT -0600)
Land O' Lakes

Weather History for KLNL - March, 2014

Change the Weather History Date:

Saturday, March 1, 2014

  Actual Average (KEGV) Record (KEGV)
Temperature  
Mean Temperature -1 °F -  
Max Temperature 7 °F 35 °F 48 °F (1998)
Min Temperature -10 °F 10 °F -10 °F (2014)
Degree Days  
Heating Degree Days 66    
Moisture  
Dew Point -9 °F    
Average Humidity 69    
Maximum Humidity 83    
Minimum Humidity 47    
Precipitation  
Precipitation 0.00 in - - ()
Sea Level Pressure  
Sea Level Pressure 30.15 in    
Wind  
Wind Speed 6 mph (NW)    
Max Wind Speed 13 mph    
Max Gust Speed 16 mph    
Visibility 9 miles    
Events Snow    
Averages and records for this station are not official NWS values.
T = Trace of Precipitation, MM = Missing Value Source: NWS Daily Summary

Daily Weather History Graph

Daily Weather History Graph

Search for Another Location

Airport or City:

Trip Planner

Search our weather history database for the weather conditions in past years. The results will help you decide how hot, cold, wet, or windy it might be!

Date:

Astronomy

Mar. 01, 2014 Rise Set
Actual Time 6:35 AM CST 5:43 PM CST
Civil Twilight 6:05 AM CST 6:13 PM CST
Nautical Twilight 5:31 AM CST 6:48 PM CST
Astronomical Twilight 4:56 AM CST 7:22 PM CST
Moon 6:26 AM CST (3/1) 6:35 PM CST (3/1)
Length of Visible Light 12h 07m
Length of Day
11h 07m
New Moon, 0% of the Moon is Illuminated
Mar 1
New Moon
Mar 8
First Quarter
Mar 16
Full
Mar 23
Last Quarter
Mar 30
New

Hourly Weather History & Observations

Time (CST) Temp. Windchill Dew Point Humidity Pressure Visibility Wind Dir Wind Speed Gust Speed Precip Events Conditions
12:15 AM 3.9 °F -5.3 °F -0.8 °F 81% 29.95 in 3.0 mi NW 4.6 mph - N/A Snow Light Snow
12:35 AM 3.7 °F -7.1 °F -1.3 °F 80% 29.96 in 5.0 mi NW 5.8 mph - N/A Snow Light Snow
12:55 AM 3.2 °F -7.8 °F -2.2 °F 78% 29.97 in 10.0 mi NW 5.8 mph - N/A   Clear
1:15 AM 2.8 °F -8.2 °F -2.6 °F 78% 29.98 in 10.0 mi NW 5.8 mph - N/A   Clear
1:35 AM 2.1 °F -7.4 °F -3.1 °F 79% 29.99 in 10.0 mi NW 4.6 mph - N/A   Clear
1:55 AM 1.2 °F -10.1 °F -3.6 °F 80% 29.99 in 10.0 mi WNW 5.8 mph - N/A Snow Light Snow
2:10 AM 1.0 °F -10.3 °F -4.0 °F 79% 30.00 in 7.0 mi NW 5.8 mph - N/A Snow Light Snow
2:35 AM 0.1 °F -12.8 °F -5.1 °F 79% 30.00 in 10.0 mi NW 6.9 mph - N/A   Clear
2:55 AM -0.4 °F -13.4 °F -5.6 °F 79% 30.00 in 10.0 mi NNW 6.9 mph - N/A   Clear
3:15 AM -0.6 °F -14.9 °F -5.6 °F 79% 30.01 in 10.0 mi NW 8.1 mph - N/A   Clear
3:35 AM -1.3 °F -14.5 °F -5.8 °F 81% 30.01 in 10.0 mi NW 6.9 mph - N/A Snow Light Snow
3:55 AM -1.5 °F -14.7 °F -5.8 °F 82% 30.02 in 10.0 mi NW 6.9 mph - N/A Snow Light Snow
4:15 AM -2.0 °F -15.4 °F -6.0 °F 83% 30.04 in 10.0 mi NW 6.9 mph - N/A Snow Light Snow
4:35 AM -2.2 °F -15.6 °F -6.7 °F 81% 30.05 in 10.0 mi NW 6.9 mph - N/A   Clear
4:55 AM -2.2 °F -16.8 °F -6.7 °F 81% 30.06 in 10.0 mi NW 8.1 mph - N/A   Clear
5:15 AM -2.6 °F -16.0 °F -7.6 °F 79% 30.05 in 10.0 mi NNW 6.9 mph - N/A   Clear
5:35 AM -2.9 °F -16.5 °F -7.6 °F 80% 30.07 in 10.0 mi NNW 6.9 mph - N/A   Clear
5:55 AM -3.1 °F -13.5 °F -7.8 °F 80% 30.08 in 10.0 mi NNW 4.6 mph - N/A   Clear
6:15 AM -3.5 °F -11.8 °F -7.8 °F 82% 30.09 in 10.0 mi NW 3.5 mph - N/A   Clear
6:35 AM -3.8 °F -14.4 °F -8.1 °F 82% 30.08 in 10.0 mi NW 4.6 mph - N/A   Clear
6:50 AM -4.0 °F -12.4 °F -8.3 °F 82% 30.09 in 10.0 mi NW 3.5 mph - N/A   Clear
7:15 AM -3.3 °F -11.6 °F -7.8 °F 81% 30.11 in 10.0 mi NW 3.5 mph - N/A   Clear
7:35 AM -3.3 °F -11.6 °F -7.6 °F 82% 30.13 in 10.0 mi WNW 3.5 mph - N/A   Clear
7:55 AM -2.4 °F -10.6 °F -7.1 °F 80% 30.13 in 10.0 mi WNW 3.5 mph - N/A   Scattered Clouds
8:15 AM -1.5 °F -11.6 °F -6.7 °F 78% 30.13 in 10.0 mi WNW 4.6 mph - N/A   Clear
8:35 AM -0.4 °F -13.4 °F -6.7 °F 75% 30.15 in 10.0 mi West 6.9 mph - N/A   Clear
8:55 AM 0.9 °F -10.5 °F -6.3 °F 72% 30.15 in 10.0 mi West 5.8 mph - N/A   Scattered Clouds
9:15 AM 1.0 °F -14.0 °F -6.3 °F 71% 30.15 in 10.0 mi WNW 9.2 mph - N/A   Mostly Cloudy
9:35 AM 1.4 °F -11.3 °F -6.5 °F 69% 30.16 in 10.0 mi NW 6.9 mph - N/A   Mostly Cloudy
9:55 AM 1.4 °F -8.3 °F -7.8 °F 65% 30.15 in 5.0 mi NW 4.6 mph - N/A   Haze
10:15 AM 1.9 °F -11.8 °F -7.8 °F 64% 30.16 in 7.0 mi NW 8.1 mph - N/A   Mostly Cloudy
10:35 AM 2.1 °F -11.6 °F -7.6 °F 64% 30.15 in 5.0 mi WNW 8.1 mph - N/A   Haze
10:55 AM 2.5 °F -11.1 °F -8.1 °F 61% 30.17 in 10.0 mi NW 8.1 mph - N/A   Overcast
11:15 AM 3.6 °F -7.3 °F -8.1 °F 58% 30.17 in 7.0 mi NNW 5.8 mph - N/A   Mostly Cloudy
11:30 AM 3.4 °F -8.9 °F -8.0 °F 59% 30.18 in 7.0 mi NW 6.9 mph - N/A   Mostly Cloudy
11:55 AM 3.2 °F -9.1 °F -7.6 °F 61% 30.17 in 7.0 mi NW 6.9 mph - N/A   Overcast
12:15 PM 3.2 °F -9.1 °F -8.9 °F 57% 30.17 in 7.0 mi NNW 6.9 mph - N/A   Overcast
12:35 PM 4.1 °F -8.0 °F -7.6 °F 58% 30.17 in 4.0 mi WNW 6.9 mph - N/A   Haze
12:55 PM 5.4 °F -7.6 °F -8.3 °F 53% 30.17 in 10.0 mi West 8.1 mph - N/A   Overcast
1:15 PM 4.8 °F -7.1 °F -7.8 °F 56% 30.17 in 7.0 mi WNW 6.9 mph - N/A   Overcast
1:35 PM 5.2 °F -7.9 °F -6.5 °F 59% 30.16 in 5.0 mi NNW 8.1 mph - N/A   Haze
1:55 PM 7.0 °F -7.5 °F -9.4 °F 47% 30.17 in 10.0 mi West 10.4 mph 16.1 mph N/A   Overcast
2:15 PM 5.9 °F -5.8 °F -9.0 °F 50% 30.17 in 10.0 mi WNW 6.9 mph - N/A   Overcast
2:35 PM 4.6 °F -9.5 °F -6.3 °F 61% 30.18 in 3.0 mi NNW 9.2 mph - N/A   Haze
2:55 PM 3.2 °F -10.3 °F -5.6 °F 67% 30.18 in 3.0 mi NNW 8.1 mph - N/A   Haze
3:15 PM 4.3 °F -11.7 °F -6.5 °F 61% 30.18 in 5.0 mi NNW 11.5 mph - N/A   Haze
3:35 PM 3.0 °F -12.5 °F -7.8 °F 61% 30.19 in 7.0 mi NNW 10.4 mph - N/A   Overcast
3:55 PM 2.1 °F -10.4 °F -9.2 °F 59% 30.20 in 10.0 mi NNW 6.9 mph - N/A   Mostly Cloudy
4:10 PM 2.1 °F -10.4 °F -9.9 °F 57% 30.20 in 10.0 mi NNW 6.9 mph - N/A   Scattered Clouds
4:35 PM 1.0 °F -16.6 °F -9.2 °F 62% 30.21 in 10.0 mi North 12.7 mph - N/A   Mostly Cloudy
4:55 PM 0.3 °F -15.8 °F -9.8 °F 63% 30.20 in 10.0 mi NNW 10.4 mph - N/A   Mostly Cloudy
5:15 PM -0.8 °F -16.2 °F -10.3 °F 64% 30.21 in 10.0 mi NNW 9.2 mph - N/A   Clear
5:35 PM -2.0 °F -17.7 °F -11.2 °F 65% 30.22 in 10.0 mi NNW 9.2 mph - N/A   Clear
5:55 PM -2.9 °F -16.5 °F -12.3 °F 64% 30.22 in 10.0 mi NNW 6.9 mph - N/A   Clear
6:15 PM -3.6 °F -17.3 °F -12.5 °F 66% 30.24 in 10.0 mi NW 6.9 mph - N/A   Clear
6:35 PM -4.4 °F -12.8 °F -12.8 °F 67% 30.25 in 10.0 mi NNW 3.5 mph - N/A   Clear
6:55 PM -5.3 °F -17.8 °F -13.2 °F 69% 30.25 in 10.0 mi NNW 5.8 mph - N/A   Clear
7:15 PM -5.4 °F -16.2 °F -13.0 °F 70% 30.26 in 10.0 mi NW 4.6 mph - N/A   Clear
7:35 PM -5.4 °F -16.2 °F -12.5 °F 72% 30.26 in 10.0 mi NW 4.6 mph - N/A   Clear
7:55 PM -5.4 °F -16.2 °F -12.5 °F 72% 30.28 in 10.0 mi WNW 4.6 mph - N/A   Clear
8:15 PM -5.8 °F -14.5 °F -12.8 °F 72% 30.27 in 10.0 mi WNW 3.5 mph - N/A   Clear
8:35 PM -6.2 °F -14.9 °F -13.9 °F 69% 30.27 in 10.0 mi NW 3.5 mph - N/A   Clear
8:55 PM -6.5 °F -20.8 °F -15.0 °F 67% 30.28 in 10.0 mi NW 6.9 mph - N/A   Clear
9:15 PM -6.7 °F -17.7 °F -15.9 °F 64% 30.27 in 10.0 mi NW 4.6 mph - N/A   Clear
9:35 PM -7.2 °F -20.1 °F -16.6 °F 64% 30.28 in 10.0 mi WNW 5.8 mph - N/A   Clear
9:55 PM -7.6 °F -20.6 °F -17.1 °F 63% 30.29 in 10.0 mi NW 5.8 mph - N/A   Clear
10:15 PM -7.8 °F -20.8 °F -18.2 °F 60% 30.27 in 10.0 mi WNW 5.8 mph - N/A   Clear
10:35 PM -8.1 °F -22.7 °F -19.3 °F 58% 30.27 in 10.0 mi WNW 6.9 mph - N/A   Clear
10:55 PM -8.7 °F -17.8 °F -19.3 °F 60% 30.28 in 10.0 mi WNW 3.5 mph - N/A   Clear
11:15 PM -9.0 °F -22.3 °F -19.5 °F 60% 30.28 in 10.0 mi WNW 5.8 mph - N/A   Clear
11:35 PM -9.8 °F - -19.7 °F 62% 30.28 in 10.0 mi Calm Calm - N/A   Clear
11:55 PM -10.5 °F -19.8 °F -19.8 °F 63% 30.29 in 10.0 mi WNW 3.5 mph - N/A   Clear